TimeEDT,TemperatureF,Dew PointF,Humidity,Sea Level PressureIn,VisibilityMPH,Wind Direction,Wind SpeedMPH,Gust SpeedMPH,PrecipitationIn,Events,Conditions,WindDirDegrees,DateUTC
12:53 AM,69.1,64.9,87,30.18,-9999.0,NE,4.6,-,N/A,,Unknown,50,2012-10-14 04:53:00
1:53 AM,68.0,64.9,90,30.17,-9999.0,Variable,3.5,-,N/A,,Unknown,0,2012-10-14 05:53:00
2:53 AM,66.9,64.9,93,30.15,-9999.0,NNE,3.5,-,0.01,,Unknown,30,2012-10-14 06:53:00
3:53 AM,66.0,64.0,93,30.14,-9999.0,NNE,4.6,-,N/A,,Unknown,30,2012-10-14 07:53:00
4:53 AM,66.0,64.0,93,30.14,-9999.0,NNE,4.6,-,N/A,,Unknown,30,2012-10-14 08:53:00
5:53 AM,64.9,63.0,93,30.13,-9999.0,NE,3.5,-,N/A,,Unknown,50,2012-10-14 09:53:00
6:53 AM,64.9,63.0,93,30.13,-9999.0,NE,3.5,-,N/A,,Unknown,40,2012-10-14 10:53:00
7:53 AM,64.9,63.0,93,30.14,-9999.0,NNE,3.5,-,N/A,,Unknown,30,2012-10-14 11:53:00
8:53 AM,66.9,64.0,90,30.15,-9999.0,NE,4.6,-,N/A,,Unknown,40,2012-10-14 12:53:00
9:53 AM,73.0,66.0,79,30.15,-9999.0,NE,4.6,-,N/A,,Unknown,40,2012-10-14 13:53:00
10:53 AM,77.0,66.0,69,30.14,-9999.0,ENE,5.8,-,N/A,,Unknown,70,2012-10-14 14:53:00
11:53 AM,82.0,66.0,58,30.14,-9999.0,Variable,3.5,-,N/A,,Unknown,0,2012-10-14 15:53:00
12:53 PM,82.0,64.0,54,30.13,-9999.0,Variable,5.8,-,N/A,,Unknown,0,2012-10-14 16:53:00
1:53 PM,82.9,63.0,51,30.10,-9999.0,Variable,4.6,-,N/A,,Unknown,0,2012-10-14 17:53:00
2:53 PM,86.0,63.0,46,30.08,-9999.0,North,3.5,-,N/A,,Unknown,360,2012-10-14 18:53:00
3:53 PM,88.0,62.1,42,30.06,-9999.0,Variable,3.5,-,N/A,,Unknown,0,2012-10-14 19:53:00
4:53 PM,82.0,64.0,54,30.05,-9999.0,Calm,Calm,-,N/A,,Unknown,0,2012-10-14 20:53:00
5:53 PM,81.0,64.0,56,30.05,-9999.0,West,6.9,-,N/A,,Unknown,260,2012-10-14 21:53:00
6:53 PM,75.9,64.9,69,30.04,-9999.0,WNW,3.5,-,N/A,,Unknown,290,2012-10-14 22:53:00
7:53 PM,73.9,64.9,73,30.04,-9999.0,ENE,6.9,-,N/A,,Unknown,60,2012-10-14 23:53:00
8:53 PM,73.9,68.0,82,30.04,-9999.0,NE,3.5,-,N/A,,Unknown,40,2012-10-15 00:53:00
9:53 PM,73.0,68.0,84,30.03,-9999.0,NE,3.5,-,0.01,,Unknown,50,2012-10-15 01:53:00
10:53 PM,71.1,68.0,90,30.03,-9999.0,Calm,Calm,-,N/A,,Unknown,0,2012-10-15 02:53:00
11:53 PM,70.0,66.9,90,30.03,-9999.0,Calm,Calm,-,N/A,,Unknown,0,2012-10-15 03:53:00